Location: Newark
(42.8481°N, 0.4872°E)
Time: 22:43:00
(UTC+00:00)

Vanguard 3 - Pass Details

Date: 05 November 2020
Orbit: 508 x 3262 km, 33.3° (Epoch: 28 November)

Event Time Altitude Azimuth Distance (km) Brightness Sun altitude
Rises 01:25:42 0° 201° (SSW) 4,610 - -55.0°
Reaches altitude 10° 01:29:00 10° 189° (S) 4,008 - -54.5°
Maximum altitude 01:37:57 27° 137° (SE) 3,708 - -53.3°
Exits shadow 01:39:11 27° 130° (SE) 3,826 10.5 -53.1°
Drops below altitude 10° 01:50:38 10° 89° (E) 5,822 11.8 -51.4°
Sets 01:56:44 0° 80° (E) 7,097 12.5 -50.5°
